FW9637 Weather Reports


time (UTC)temp
F
wind
direction
speed
knots
gust
knots
rain 1hr
in
rain 24hr
in
rain mn
in
humidity
%
barometer
mb
20260510095033 49 0 0.0 0.0 0.00 0.34 0.01 91 1010.6
20260510094548 49 0 0.0 0.0 0.00 0.34 0.01 91 1010.5
20260510094036 49 0 0.0 0.0 0.00 0.34 0.01 91 1010.4
20260510093534 49 0 0.0 1.7 0.00 0.34 0.01 91 1010.4
20260510093045 50 0 0.0 1.7 0.01 0.34 0.01 91 1010.2
20260510092536 50 261 0.0 1.7 0.01 0.34 0.01 91 1010.1
20260510092034 50 261 0.0 1.7 0.01 0.34 0.01 91 1010.1
20260510091544 50 261 0.0 0.9 0.01 0.34 0.01 91 1010.1
20260510091034 50 261 0.0 0.9 0.01 0.34 0.01 91 1010.0
20260510090534 50 0 0.0 0.9 0.01 0.34 0.01 91 1010.0
20260510090043 50 0 0.0 0.0 0.01 0.34 0.01 91 1009.7
20260510085538 50 0 0.0 0.0 0.01 0.34 0.01 91 1009.8
20260510085035 50 0 0.0 0.0 0.01 0.34 0.01 91 1010.0
20260510084554 51 0 0.0 0.9 0.01 0.34 0.01 91 1010.0
20260510084036 51 0 0.0 1.7 0.01 0.34 0.01 91 1010.0
20260510083536 51 0 0.0 1.7 0.01 0.34 0.01 91 1010.1
20260510083044 51 250 0.9 1.7 0.00 0.33 0.00 91 1010.0
20260510082536 51 337 0.0 1.7 0.00 0.33 0.00 91 1010.0
20260510082035 51 0 0.9 7.8 0.00 0.33 0.00 91 1009.9
20260510081546 51 331 0.9 7.8 0.00 0.33 0.00 91 1010.0
20260510081035 50 154 1.7 4.3 0.00 0.33 0.00 91 1009.8
20260510080537 50 34 0.0 0.9 0.00 0.33 0.00 91 1010.0
20260510080045 50 0 0.0 0.9 0.00 0.33 0.00 91 1010.3
20260510075535 50 0 0.0 0.9 0.00 0.34 0.00 91 1010.5
20260510075036 50 0 0.0 1.7 0.00 0.34 0.00 91 1010.9
20260510074558 50 33 0.0 1.7 0.00 0.34 0.00 91 1010.6
20260510074037 50 0 0.0 0.9 0.00 0.34 0.00 91 1010.5
20260510073540 50 0 0.0 1.7 0.00 0.34 0.00 91 1010.7
20260510073048 50 0 0.0 1.7 0.00 0.34 0.00 91 1010.8
20260510072536 50 76 0.0 0.9 0.00 0.34 0.00 91 1010.8
20260510072036 50 0 0.0 0.9 0.00 0.34 0.00 91 1010.8
20260510071553 50 151 0.0 0.9 0.00 0.34 0.00 91 1010.8
20260510071038 50 0 0.0 0.9 0.00 0.34 0.00 91 1010.9
20260510070535 50 151 0.0 0.9 0.00 0.34 0.00 91 1011.0
20260510070051 50 0 0.0 0.9 0.00 0.34 0.00 91 1011.0
20260510065536 50 0 0.0 1.7 0.00 0.39 0.00 91 1011.1
20260510065036 50 0 0.0 1.7 0.00 0.39 0.00 91 1011.2
20260510064603 50 151 0.0 1.7 0.00 0.39 0.00 91 1011.2
20260510064035 50 0 0.0 2.6 0.00 0.39 0.00 91 1011.3
20260510063535 50 0 0.9 2.6 0.00 0.39 0.00 91 1011.3
20260510063045 49 255 0.0 2.6 0.00 0.39 0.00 91 1010.7
20260510062536 49 219 0.0 1.7 0.00 0.39 0.00 91 1010.6
20260510062036 49 0 0.0 0.9 0.00 0.39 0.00 91 1010.4
20260510061544 49 0 0.0 0.9 0.00 0.39 0.00 91 1010.4
20260510061036 49 0 0.0 0.9 0.00 0.39 0.00 91 1010.4
20260510060536 49 0 0.0 0.9 0.00 0.39 0.00 91 1010.6
20260510060052 49 0 0.0 0.9 0.00 0.39 0.00 91 1010.5
20260510055621 49 0 0.0 0.9 0.00 0.41 0.00 91 1010.6
20260510055034 49 32 0.0 0.9 0.00 0.41 0.00 90 1010.9
20260510054542 49 0 0.0 0.9 0.00 0.41 0.00 90 1011.0
20260510054034 49 0 0.0 0.9 0.00 0.41 0.00 90 1010.9
20260510053533 48 0 0.0 0.9 0.00 0.41 0.00 91 1010.9
20260510053042 48 0 0.0 0.0 0.00 0.41 0.00 91 1010.8
20260510052533 48 0 0.0 0.9 0.00 0.41 0.00 90 1010.8
20260510052034 48 0 0.0 0.9 0.00 0.41 0.00 90 1010.8
20260510051554 48 0 0.0 0.9 0.00 0.41 0.00 90 1010.9
20260510051034 48 0 0.0 0.9 0.00 0.41 0.00 90 1010.8
20260510050534 47 0 0.0 0.9 0.00 0.41 0.00 90 1010.5
20260510050047 47 0 0.0 0.9 0.00 0.41 0.00 90 1010.1
20260510045535 47 0 0.0 0.9 0.00 0.41 0.00 90 1010.0
20260510045034 47 0 0.0 0.9 0.00 0.41 0.00 90 1010.1
20260510044545 47 0 0.0 0.9 0.00 0.41 0.00 90 1010.1
20260510044034 46 0 0.0 0.9 0.00 0.41 0.00 90 1010.2
20260510043534 46 0 0.0 0.9 0.00 0.41 0.00 90 1010.1
20260510043048 46 0 0.0 0.9 0.00 0.41 0.00 90 1010.3
20260510042534 46 0 0.0 0.9 0.00 0.41 0.00 90 1010.4
20260510042033 45 32 0.0 0.9 0.00 0.41 0.00 90 1010.4
20260510041557 45 0 0.0 0.9 0.00 0.41 0.00 89 1010.4
20260510041034 45 0 0.0 0.9 0.00 0.41 0.00 89 1010.4
20260510040534 45 0 0.0 0.9 0.00 0.41 0.00 90 1010.3
20260510040049 45 0 0.0 0.0 0.00 0.41 0.00 89 1010.4
20260510035533 45 0 0.0 0.0 0.00 0.41 0.41 89 1010.4
20260510035034 45 0 0.0 0.0 0.00 0.41 0.41 89 1010.3
20260510034546 45 0 0.0 0.0 0.00 0.41 0.41 89 1010.1
20260510034034 45 0 0.0 0.9 0.00 0.41 0.41 89 1010.0
20260510033536 45 0 0.0 0.9 0.00 0.41 0.41 89 1010.1
20260510033046 45 32 0.0 0.9 0.00 0.41 0.41 89 1010.1
20260510032534 45 0 0.0 0.9 0.00 0.41 0.41 89 1010.1
20260510032036 45 0 0.0 0.9 0.00 0.41 0.41 89 1010.1
20260510031544 45 0 0.0 0.9 0.00 0.41 0.41 89 1010.0
20260510031035 45 0 0.0 0.9 0.00 0.41 0.41 89 1009.8
20260510030534 45 0 0.0 0.0 0.00 0.41 0.41 89 1009.9
20260510030049 46 0 0.0 0.0 0.00 0.41 0.41 89 1009.8
20260510025534 46 0 0.0 0.0 0.00 0.41 0.41 89 1010.0
20260510025035 46 0 0.0 0.9 0.00 0.41 0.41 89 1010.0
20260510024552 46 0 0.0 0.9 0.00 0.41 0.41 89 1010.0
20260510024033 46 0 0.0 0.9 0.00 0.41 0.41 89 1010.2
20260510023533 47 0 0.0 0.0 0.00 0.41 0.41 89 1010.1
20260510023047 47 0 0.0 0.0 0.00 0.41 0.41 89 1010.0
20260510022534 47 0 0.0 0.0 0.00 0.41 0.41 89 1010.0
20260510022035 47 0 0.0 0.0 0.00 0.41 0.41 89 1010.0
20260510021541 47 0 0.0 0.0 0.00 0.41 0.41 89 1010.0
20260510021034 48 0 0.0 0.0 0.00 0.41 0.41 89 1009.9
20260510020534 48 0 0.0 0.9 0.00 0.41 0.41 89 1010.0
20260510020051 48 0 0.0 0.9 0.00 0.41 0.41 89 1009.9
20260510015535 48 0 0.0 0.9 0.00 0.41 0.41 89 1009.8
20260510015034 49 0 0.0 0.0 0.00 0.41 0.41 89 1009.8
20260510014543 49 0 0.0 1.7 0.00 0.41 0.41 89 1009.8
20260510014034 49 0 0.0 1.7 0.00 0.41 0.41 89 1009.9
20260510013534 49 0 0.0 1.7 0.00 0.41 0.41 89 1010.0
20260510013050 50 0 0.0 0.0 0.00 0.41 0.41 89 1009.7
20260510012536 50 0 0.0 0.0 0.00 0.41 0.41 89 1009.8
20260510012034 50 0 0.0 0.0 0.00 0.41 0.41 89 1009.7
20260510011545 50 0 0.0 0.0 0.00 0.41 0.41 89 1009.5
20260510011034 50 0 0.0 0.0 0.00 0.41 0.41 89 1009.7
20260510010533 51 0 0.0 0.0 0.00 0.41 0.41 89 1009.8
20260510010058 51 0 0.0 0.0 0.00 0.41 0.41 89 1009.8
20260510005535 51 0 0.0 0.0 0.00 0.41 0.41 89 1009.6
20260510005035 51 0 0.0 0.0 0.00 0.41 0.41 89 1009.5
20260510004541 51 0 0.0 0.9 0.00 0.41 0.41 89 1009.5
20260510004034 52 0 0.0 0.9 0.00 0.41 0.41 89 1009.4
20260510003534 52 0 0.0 0.9 0.00 0.41 0.41 89 1009.4
20260510003046 52 0 0.0 0.9 0.00 0.41 0.41 90 1009.3
20260510002535 52 0 0.0 0.9 0.00 0.41 0.41 90 1009.2
20260510002034 52 0 0.0 1.7 0.00 0.41 0.41 90 1009.1
20260510001543 52 32 0.0 1.7 0.00 0.41 0.41 89 1009.2
20260510001037 52 0 0.0 1.7 0.00 0.41 0.41 89 1009.1
20260510000536 52 0 0.0 2.6 0.00 0.41 0.41 89 1009.0
20260510000047 52 0 0.0 2.6 0.00 0.41 0.41 90 1009.0
20260509235534 53 185 0.0 1.7 0.00 0.41 0.41 90 1009.1
20260509235034 53 0 0.0 0.9 0.00 0.41 0.41 90 1009.0
20260509234558 53 0 0.0 0.9 0.00 0.41 0.41 89 1008.9
20260509234037 53 0 0.0 1.7 0.00 0.41 0.41 90 1008.8
20260509233538 53 0 0.0 1.7 0.00 0.41 0.41 90 1008.7
20260509233041 53 0 0.0 1.7 0.00 0.41 0.41 90 1008.5
20260509232538 54 0 0.0 2.6 0.00 0.41 0.41 90 1008.5
20260509232035 54 0 0.0 2.6 0.00 0.41 0.41 90 1008.3
20260509231539 54 0 0.0 3.5 0.00 0.41 0.41 90 1008.3
20260509231034 54 139 0.0 3.5 0.00 0.41 0.41 90 1008.4
20260509230540 54 0 0.0 1.7 0.00 0.41 0.41 90 1008.5
20260509230046 54 289 0.0 1.7 0.00 0.41 0.41 90 1008.5
20260509225535 54 230 0.0 3.5 0.00 0.41 0.41 90 1008.6
20260509225037 54 360 0.9 3.5 0.00 0.41 0.41 90 1008.5
20260509224543 54 203 0.9 2.6 0.00 0.41 0.41 90 1008.5
20260509224034 54 0 0.0 2.6 0.00 0.41 0.41 90 1008.7
20260509223534 54 0 0.9 2.6 0.00 0.41 0.41 90 1008.6
20260509223042 54 230 0.0 2.6 0.00 0.41 0.41 90 1008.6
20260509222533 54 231 0.9 2.6 0.00 0.41 0.41 90 1008.7
20260509222036 55 207 0.0 2.6 0.00 0.41 0.41 90 1008.7
20260509221601 55 0 0.9 2.6 0.00 0.41 0.41 90 1008.9
20260509221033 55 221 0.9 2.6 0.00 0.41 0.41 90 1008.9
20260509220534 55 337 0.0 3.5 0.00 0.41 0.41 90 1009.0
20260509220052 55 243 0.9 3.5 0.00 0.41 0.41 90 1008.9
20260509215531 54 0 0.0 2.6 0.00 0.41 0.41 90 1009.0
20260509215034 54 360 0.0 5.2 0.00 0.41 0.41 90 1009.0
20260509214540 54 0 1.7 7.0 0.00 0.41 0.41 90 1009.0
20260509214035 54 193 1.7 7.0 0.00 0.41 0.41 90 1009.0
20260509213535 54 360 0.9 4.3 0.00 0.41 0.41 90 1008.9
20260509213045 54 211 0.9 2.6 0.00 0.41 0.41 90 1009.1
20260509212537 54 203 0.0 2.6 0.00 0.41 0.41 90 1009.1
20260509212036 54 218 0.0 2.6 0.01 0.41 0.41 90 1009.1
20260509211546 54 218 0.0 2.6 0.01 0.41 0.41 90 1009.1
20260509211034 54 231 0.0 1.7 0.01 0.41 0.41 90 1009.0
20260509210536 54 0 0.0 1.7 0.01 0.41 0.41 90 1009.0
20260509210053 54 0 0.0 1.7 0.02 0.41 0.41 90 1009.1
20260509205533 54 0 0.9 2.6 0.02 0.41 0.41 90 1009.2
20260509205034 54 194 0.0 2.6 0.02 0.41 0.41 90 1009.3
20260509204544 54 286 0.0 1.7 0.03 0.41 0.41 90 1009.2
20260509204034 54 0 0.0 1.7 0.03 0.41 0.41 90 1009.2
20260509203533 54 0 0.0 2.6 0.04 0.41 0.41 90 1009.3
20260509203050 54 234 0.9 2.6 0.05 0.41 0.41 90 1009.3
20260509202537 54 198 0.9 2.6 0.06 0.41 0.41 90 1009.3
20260509202035 54 0 0.9 2.6 0.05 0.40 0.40 90 1009.3
20260509201544 54 0 0.9 4.3 0.06 0.40 0.40 90 1009.4
20260509201034 54 207 0.9 4.3 0.07 0.40 0.40 90 1009.4
20260509200534 54 227 0.9 3.5 0.07 0.39 0.39 90 1009.6
20260509200048 54 0 0.9 2.6 0.08 0.39 0.39 90 1009.6
20260509195535 54 223 0.9 2.6 0.09 0.39 0.39 90 1009.8
20260509195036 54 217 0.9 1.7 0.09 0.39 0.39 90 1009.9
20260509194544 54 0 0.0 2.6 0.09 0.38 0.38 90 1010.1
20260509194034 54 0 0.0 2.6 0.10 0.38 0.38 90 1010.1
20260509193534 54 218 0.0 2.6 0.10 0.37 0.37 90 1010.3
20260509193049 54 0 0.0 2.6 0.10 0.36 0.36 90 1010.3
20260509192534 54 0 0.0 1.7 0.10 0.35 0.35 90 1010.4
20260509192043 54 211 0.0 2.6 0.10 0.34 0.34 90 1010.3
20260509191557 54 204 0.0 2.6 0.12 0.34 0.34 90 1010.4
20260509191033 54 217 0.0 3.5 0.13 0.33 0.33 90 1010.4
20260509190537 54 208 0.0 3.5 0.13 0.32 0.32 90 1010.4
20260509190054 54 267 0.9 5.2 0.13 0.31 0.31 90 1010.6
20260509185534 54 207 0.9 5.2 0.13 0.31 0.30 90 1010.6
20260509185035 54 265 1.7 5.2 0.14 0.31 0.30 90 1010.5
20260509184545 54 0 1.7 4.3 0.13 0.30 0.29 90 1010.6
20260509184034 54 154 1.7 4.3 0.13 0.29 0.28 90 1010.6
20260509183535 54 198 1.7 3.5 0.12 0.28 0.27 90 1010.6
20260509183050 54 217 0.9 5.2 0.11 0.27 0.26 90 1010.8
20260509182537 54 197 1.7 5.2 0.11 0.26 0.25 90 1010.7
20260509182034 54 227 0.9 7.0 0.09 0.24 0.23 90 1010.7
20260509181546 54 156 1.7 7.0 0.08 0.23 0.22 90 1010.8
20260509181035 54 203 1.7 4.3 0.06 0.21 0.20 90 1010.9
20260509180534 54 232 1.7 5.2 0.05 0.20 0.19 90 1010.9
20260509180046 54 216 1.7 5.2 0.04 0.19 0.18 90 1010.9
20260509175534 54 244 0.9 3.5 0.03 0.18 0.17 90 1010.8
20260509175034 54 0 0.9 3.5 0.02 0.17 0.16 90 1010.9
20260509174539 54 227 0.9 3.5 0.02 0.17 0.16 90 1010.7
20260509174033 54 233 0.9 3.5 0.02 0.16 0.15 90 1010.7
20260509173533 54 0 0.0 1.7 0.02 0.16 0.15 90 1010.6
20260509173051 54 221 0.0 2.6 0.02 0.16 0.15 90 1010.7
20260509172535 54 194 0.9 2.6 0.01 0.15 0.14 90 1010.7
20260509172035 54 298 0.9 2.6 0.01 0.15 0.14 90 1010.8
20260509171601 53 346 0.0 1.7 0.01 0.15 0.14 90 1010.7
20260509171034 53 258 0.0 1.7 0.01 0.15 0.14 90 1010.8
20260509170534 53 9 0.0 1.7 0.02 0.15 0.14 90 1010.7
20260509170045 53 0 0.0 1.7 0.02 0.15 0.14 90 1010.7
20260509165534 53 0 0.0 0.9 0.02 0.15 0.14 90 1010.7
20260509165035 53 0 0.0 0.9 0.02 0.15 0.14 90 1010.8
20260509164549 52 0 0.0 0.9 0.02 0.15 0.14 90 1010.8
20260509164034 52 0 0.0 1.7 0.01 0.14 0.13 90 1010.8
20260509163535 52 0 0.0 1.7 0.02 0.14 0.13 90 1010.8
20260509163050 52 11 0.0 1.7 0.02 0.14 0.13 90 1011.0
20260509162534 52 9 0.0 1.7 0.02 0.14 0.13 90 1011.0
20260509162036 52 0 0.0 1.7 0.02 0.14 0.13 90 1010.7
20260509161547 52 45 0.0 1.7 0.03 0.14 0.13 90 1010.6
20260509161034 52 0 0.0 1.7 0.03 0.14 0.13 90 1010.6
20260509160535 52 103 0.9 2.6 0.02 0.13 0.12 90 1010.6
20260509160048 52 80 0.0 2.6 0.02 0.13 0.12 90 1010.8
20260509155534 52 27 0.0 1.7 0.02 0.13 0.12 90 1011.0
20260509155034 51 82 0.0 1.7 0.02 0.13 0.12 90 1011.0
20260509154547 51 82 0.9 1.7 0.03 0.13 0.12 90 1011.3
20260509154035 51 101 0.0 0.9 0.03 0.13 0.12 90 1011.4
20260509153534 51 0 0.0 0.9 0.02 0.12 0.11 90 1011.6
20260509153052 51 75 0.0 0.9 0.02 0.12 0.11 90 1011.5
20260509152535 51 0 0.0 0.9 0.02 0.12 0.11 90 1011.5
20260509152034 50 0 0.0 0.9 0.02 0.12 0.11 90 1011.6
20260509151548 50 75 0.0 1.7 0.02 0.11 0.10 90 1011.7
20260509151035 50 0 0.0 1.7 0.02 0.11 0.10 90 1011.6
20260509150533 50 88 0.9 1.7 0.02 0.11 0.10 90 1011.6
20260509150047 50 34 0.0 1.7 0.02 0.11 0.10 90 1011.4
20260509145536 50 73 0.0 1.7 0.02 0.11 0.10 90 1011.3
20260509145034 50 67 0.0 1.7 0.02 0.11 0.10 90 1011.4
20260509144547 50 67 0.0 1.7 0.01 0.10 0.09 90 1011.3
20260509144035 50 55 0.0 0.9 0.01 0.10 0.09 90 1011.4
20260509143554 50 0 0.0 0.9 0.01 0.10 0.09 90 1011.4
20260509143042 49 0 0.0 1.7 0.01 0.10 0.09 90 1011.4
20260509142535 49 0 0.0 1.7 0.01 0.10 0.09 90 1011.4
20260509142034 49 55 0.0 2.6 0.01 0.10 0.09 90 1011.1
20260509141551 49 55 0.0 2.6 0.00 0.09 0.08 90 1011.1
20260509141035 49 0 0.9 2.6 0.00 0.09 0.08 90 1011.1
20260509140535 49 56 0.9 1.7 0.00 0.09 0.08 90 1011.3
20260509140046 49 0 0.0 1.7 0.00 0.09 0.08 90 1011.4
20260509135534 49 28 0.0 2.6 0.00 0.09 0.08 90 1011.4
20260509135034 48 86 0.9 2.6 0.00 0.09 0.08 90 1011.3
20260509134556 49 49 0.0 1.7 0.00 0.09 0.08 90 1011.2
20260509134038 49 65 0.0 2.6 0.00 0.09 0.08 90 1011.2
20260509133534 49 44 0.9 2.6 0.00 0.09 0.08 90 1011.3
20260509133049 48 331 0.0 1.7 0.00 0.09 0.08 90 1011.4
20260509132536 48 351 0.0 1.7 0.00 0.09 0.08 90 1011.5
20260509132037 48 0 0.0 1.7 0.00 0.09 0.08 90 1011.6
20260509131601 48 0 0.0 2.6 0.00 0.09 0.08 90 1011.5
20260509131035 48 0 0.0 2.6 0.00 0.09 0.08 90 1011.6
20260509130537 48 311 0.0 1.7 0.00 0.09 0.08 90 1011.6
20260509130053 48 83 0.0 2.6 0.00 0.09 0.08 90 1011.6
20260509125534 48 88 0.9 2.6 0.00 0.09 0.08 89 1011.5
20260509125034 47 0 0.0 2.6 0.00 0.09 0.08 90 1011.6
20260509124549 47 73 0.0 2.6 0.00 0.09 0.08 90 1011.7
20260509124034 47 81 0.9 2.6 0.00 0.09 0.08 90 1011.7
20260509123534 47 73 0.9 1.7 0.00 0.09 0.08 90 1011.7
20260509123051 47 0 0.9 2.6 0.00 0.09 0.08 89 1011.8
20260509122534 47 0 0.0 2.6 0.00 0.09 0.08 89 1011.9
20260509122034 47 84 0.9 3.5 0.00 0.09 0.08 89 1011.8
20260509121550 47 0 0.9 5.2 0.00 0.09 0.08 89 1011.8
20260509121036 47 74 0.9 5.2 0.00 0.09 0.08 89 1011.5
20260509120534 47 82 0.9 3.5 0.00 0.09 0.08 89 1011.2
20260509120044 47 45 0.9 3.5 0.00 0.09 0.08 89 1011.2
20260509115534 47 0 0.9 3.5 0.00 0.09 0.08 89 1011.1
20260509115034 47 83 0.9 3.5 0.00 0.09 0.08 89 1011.2
20260509114557 47 82 0.9 3.5 0.00 0.09 0.08 89 1011.3
20260509114034 47 96 0.0 2.6 0.00 0.09 0.08 89 1011.3
20260509113533 47 342 0.0 3.5 0.00 0.09 0.08 89 1011.3
20260509113046 47 0 0.0 3.5 0.00 0.09 0.08 89 1011.3
20260509112535 47 60 0.9 3.5 0.00 0.09 0.08 89 1011.3
20260509112034 47 76 0.9 3.5 0.00 0.09 0.08 89 1011.3
20260509111546 47 0 0.0 1.7 0.00 0.09 0.08 89 1011.5
20260509111034 46 111 0.0 1.7 0.00 0.09 0.08 89 1011.5
20260509110533 46 0 0.0 1.7 0.00 0.09 0.08 89 1011.6
20260509110048 46 0 0.0 1.7 0.00 0.09 0.08 89 1011.5
20260509105534 46 111 0.9 1.7 0.00 0.09 0.08 89 1011.5
20260509105034 46 0 0.0 1.7 0.00 0.09 0.08 89 1011.6
20260509104552 46 0 0.0 3.5 0.00 0.09 0.08 89 1011.4
20260509104035 46 98 0.9 3.5 0.00 0.09 0.08 89 1011.3
20260509103536 46 94 0.0 1.7 0.00 0.09 0.08 89 1011.5
20260509103041 46 0 0.0 1.7 0.00 0.09 0.08 89 1011.6
20260509102534 46 44 0.0 0.9 0.00 0.09 0.08 88 1011.4
20260509102034 46 0 0.0 0.9 0.00 0.09 0.08 88 1011.3
20260509101545 46 0 0.0 1.7 0.00 0.09 0.08 88 1011.4
20260509101034 46 0 0.0 1.7 0.00 0.09 0.08 88 1011.3
20260509100533 46 62 0.0 1.7 0.00 0.09 0.08 88 1011.3
20260509100040 47 62 0.0 1.7 0.00 0.09 0.08 88 1011.4
20260509095534 47 0 0.0 1.7 0.00 0.09 0.08 88 1011.3